This is the latest recevied weather packets stored in our database for station/object PA3DZX-13. If no packets are shown the sender has not sent any weather packets the latest 10 day(s).
| Time | Temp. | Humidity | Pressure | Rain* | Wind** | Luminosity | Snow |
|---|---|---|---|---|---|---|---|
| 1777737147 | 22.78° C | 48% | 1015.7 hPa | 0 mm | - | - | - |
| 1777736247 | 22.78° C | 46% | 1015.9 hPa | 0 mm | - | - | - |
| 1777735347 | 22.78° C | 47% | 1015.9 hPa | 0 mm | - | - | - |
| 1777734447 | 22.78° C | 47% | 1016.1 hPa | 0 mm | - | - | - |
| 1777733547 | 22.78° C | 45% | 1016.2 hPa | 0 mm | - | - | - |
| 1777732647 | 23.89° C | 45% | 1016.3 hPa | 0 mm | - | - | - |
| 1777731746 | 23.89° C | 43% | 1016.5 hPa | 0 mm | - | - | - |
| 1777730846 | 23.89° C | 44% | 1016.7 hPa | 0 mm | - | - | - |
| 1777729946 | 22.78° C | 45% | 1016.7 hPa | 0 mm | - | - | - |
| 1777729046 | 23.89° C | 44% | 1016.8 hPa | 0 mm | - | - | - |
| 1777728145 | 23.89° C | 45% | 1016.9 hPa | 0 mm | - | - | - |
| 1777727245 | 23.89° C | 45% | 1017 hPa | 0 mm | - | - | - |
| 1777726345 | 22.78° C | 45% | 1017.3 hPa | 0 mm | - | - | - |
| 1777725444 | 22.78° C | 44% | 1017.4 hPa | 0 mm | - | - | - |
| 1777724544 | 21.67° C | 45% | 1017.6 hPa | 0 mm | - | - | - |
| 1777723645 | 22.78° C | 44% | 1017.6 hPa | 0 mm | - | - | - |
| 1777722743 | 21.67° C | 44% | 1017.7 hPa | 0 mm | - | - | - |
| 1777721843 | 21.67° C | 47% | 1017.9 hPa | 0 mm | - | - | - |
| 1777720942 | 20.56° C | 42% | 1018 hPa | 0 mm | - | - | - |
| 1777720042 | 20.56° C | 43% | 1018.1 hPa | 0 mm | - | - | - |
| 1777719142 | 20.56° C | 42% | 1018.2 hPa | 0 mm | - | - | - |
| 1777718242 | 21.67° C | 42% | 1018.2 hPa | 0 mm | - | - | - |
| 1777717341 | 21.67° C | 42% | 1018.2 hPa | 0 mm | - | - | - |
| 1777716442 | 21.67° C | 43% | 1018.4 hPa | 0 mm | - | - | - |
| 1777715540 | 21.67° C | 41% | 1018.4 hPa | 0 mm | - | - | - |
* Rain latest hour (hover to see other rain measurements)
** Current wind speed in m/s (hover to see current wind gust speed)